www.pogodaiklimat.ru

Погода и климат >> Архив погоды >> Россия >> Якутия >> Джалинда


ПОГОДА в Джалинде

  • Прогноз погоды в Джалинде
  • Монитор погоды в Джалинде
  • Климат города

АРХИВ ПОГОДЫ в Джалинде

Время (UTC), дата Ветер
(напр.,м/с)
 
Видим.   Явления Облачность Т
(С)
Тd
(С)
f
(%)
Тe
(С)
Тes
(С)
Комфортность P
(гПа)
Po
(гПа)
Тmin
(С)
Tmax
(С)
R
(мм)
R24
(мм)
S
(см)
06 19.04 ЮВ 3 50 км 6/0
[Cs]
+2.1 -9.5 42 -1 +3 1005.0 997.3
09 19.04 ЮВ 3 50 км 6/0
[Ci sp]
+2.0 -9.6 42 -1 0 1004.3 996.7
12 19.04 ЮВ 3 50 км 10/0
[Cs]
+0.5 -9.6 47 -3 -3 1003.9 996.2 +2.4
15 19.04 ЮВ 3 50 км 10/0
[Cs]
-4.6 -10.3 64 -10 -10 1003.8 995.9
18 19.04 ЮВ 2 50 км 10/0
[Cs]
-10.2 -13.8 75 -15 -15 1003.7 995.7
21 19.04 штиль 0 50 км 10/0
[Cs]
-1.9 -4.0 86 -3 -3 1000.0 992.2
00 20.04 ЮВ 1 20 км слабый снег 10/0
[As op]
-1.0 -2.9 87 -3 -3 997.7 989.9 -10.2 0.4 31
03 20.04 Ю 1 50 км {снег} 10/10 600 м
[Sc]
+1.8 -1.9 76 0 0 996.0 988.3
06 20.04 штиль 0 50 км {снег} 9/9 600 м
[Sc]
+2.7 -2.8 67 +2 +3 996.7 989.1
09 20.04 штиль 0 50 км 9/9 600 м
[Sc]
+2.4 -3.5 65 +2 +2 999.1 991.4
12 20.04 СЗ 1 50 км 9/9 600 м
[Sc]
+0.1 -4.3 72 -2 -2 1000.0 992.3 +2.9 0.0
15 20.04 СЗ 1 10 км слабый снег 10/0
[As op]
-3.9 -4.7 94 -6 -6 1001.1 993.3
18 20.04 СЗ 1 10 км слабый снег 10/0
[As op]
-4.7 -6.1 90 -7 -7 1001.9 994.1
21 20.04 С 1 20 км слабый снег 10/0
[As op]
-9.0 -10.1 92 -11 -11 1003.5 995.5
00 21.04 СЗ 1 50 км {снег} 10/10 600 м
[Sc]
-6.7 -8.3 88 -9 -9 1004.5 996.5 -9.0 2 32
03 21.04 СЗ 3 50 км 8/4 600 м
[Sc Ci sp]
-5.1 -9.2 73 -10 -8 1005.7 997.8
06 21.04 С 3 50 км 6/0
[Ci sp]
-4.0 -10.3 62 -9 -5 1007.0 999.1
09 21.04 С 3 50 км 8/0
[Ci sp]
-4.4 -10.0 65 -9 -8 1007.4 999.5
12 21.04 С 5 50 км 9/9 600 м
[Sc]
-5.7 -9.5 75 -13 -13 1011.0 1003.1 -3.8
15 21.04 С 3 50 км 8/8 600 м
[Sc]
-10.4 -12.4 85 -16 -16 1012.6 1004.6
18 21.04 С 3 50 км 8/8 600 м
[Sc]
-13.2 -15.2 85 -19 -19 1013.7 1005.5
21 21.04 С 3 50 км 9/9 600 м
[Sc]
-12.2 -13.5 90 -18 -18 1018.5 1010.2
00 22.04 С 5 20 км слабый снег 10/0
[As op]
-11.6 -12.9 90 -20 -19 1020.2 1011.9 -13.2 0.0 31
03 22.04 С 3 50 км в посл. час снег 8/8 600 м
[Sc]
-8.3 -12.0 75 -14 -13 1021.1 1013.0
06 22.04 С 3 50 км {снег} 10/0
[As op]
-5.7 -11.4 64 -11 -10 1021.8 1013.8
09 22.04 С 3 50 км 10/10 600 м
[Sc]
-6.5 -12.0 65 -12 -12 1024.5 1016.4
12 22.04 С 3 20 км слабый снег 10/0
[As op]
-7.6 -10.7 78 -13 -13 1026.0 1017.8 -5.5 0.2
15 22.04 С 3 20 км слабый снег 10/0
[As op]
-9.7 -12.3 81 -16 -16 1026.8 1018.6
18 22.04 С 3 50 км {снег} 10/0
[As op]
-11.0 -12.3 90 -17 -17 1027.6 1019.4
21 22.04 штиль 0 50 км 10/0
[As op]
-9.3 -12.3 79 -10 -10 1024.8 1016.6
00 23.04 штиль 0 50 км 10/0 1500 м
[As op]
-8.5 -12.3 74 -9 -8 1026.1 1017.9 -11.0 0.0 31
03 23.04 штиль 0 50 км 9/9 600 м
[Sc]
-5.8 -12.0 62 -6 -6 1024.2 1016.2
06 23.04 штиль 0 50 км ясно -0.8 -8.7 55 -1 +7 1022.9 1015.0
09 23.04 штиль 0 50 км ясно +1.8 -6.3 55 +1 +5 1023.1 1015.2
12 23.04 штиль 0 50 км 8/8 600 м
[Sc]
-0.1 -7.7 57 -1 -1 1022.4 1014.6 +1.8
15 23.04 штиль 0 50 км 9/9 600 м
[Sc]
-2.7 -8.4 65 -3 -3 1020.6 1012.6
18 23.04 штиль 0 50 км 9/9 600 м
[Sc]
-4.1 -9.1 68 -5 -5 1019.1 1011.1
21 23.04 Ю 3 10 км слабый снег 10/8 600 м
[Frnb As op]
-4.1 -4.6 96 -10 -10 1017.9 1009.9
00 24.04 Ю 5 10 км слабый снег 10/8 600 м
[Frnb As op]
-3.5 -4.6 92 -10 -10 1016.2 1008.2 -4.1 2 33
03 24.04 СВ 5 50 км {снег} 9/9 600 м
[Sc]
-0.5 -6.2 65 -6 -6 1013.9 1006.1
06 24.04 ЮЗ 5 50 км {снег} 10/10 600 м
[Sc]
-0.6 -5.9 67 -6 -6 1014.4 1006.6
09 24.04 штиль 0 50 км ледяные иглы {метель} 9/8 600 м
[Sc Ci fib]
-0.3 -6.7 62 1014.1 1006.3
12 24.04 штиль 0 50 км {метель} 8/8 600 м
[Sc]
-1.7 -10.0 53 -2 -2 1017.0 1009.0 -0.1 0.0
15 24.04 штиль 0 50 км 8/8 600 м
[Sc]
-4.4 -10.9 60 -5 -5 1019.0 1011.0
18 24.04 штиль 0 50 км 8/8 600 м
[Sc]
-7.2 -13.0 63 -8 -8 1020.6 1012.5
21 24.04 штиль 0 50 км ясно -8.4 -9.5 92 -9 -9 1021.9 1013.8
00 25.04 штиль 0 50 км 3/0
[Ci sp]
-2.4 -7.6 67 -3 +1 1021.8 1013.8 -8.4 32
03 25.04 ЮЗ 5 50 км 4/0
[Ci sp]
+2.5 -6.9 50 -2 +1 1019.7 1011.9
06 25.04 Ю 5 50 км 4/0
[Ci sp]
+4.6 -6.5 44 +1 +4 1016.4 1008.7
09 25.04 Ю 5 50 км 8/0
[Ci sp]
+5.6 -6.3 42 +2 +3 1014.2 1006.5
12 25.04 ЮВ 5 50 км 10/10 600 м
[Sc]
+4.3 -5.9 47 0 0 1011.3 1003.7 +5.8
15 25.04 ЮВ 5 50 км 10/0
[As op]
+2.8 -2.4 69 -2 -2 1008.6 1000.9
18 25.04 ЮВ 5 50 км 10/0
[As op]
-1.2 -5.2 74 -7 -7 1007.5 999.8
21 25.04 штиль 0 50 км {снег} 10/0 600 м
[As op]
+0.5 -1.7 85 -1 -1 1004.4 996.7
00 26.04 штиль 0 50 км {снег} 10/0
[As op]
+1.7 -1.1 82 +1 +2 1002.2 994.5 -1.2 0.6 32
03 26.04 штиль 0 50 км 10/0
[As op]
+2.9 -1.6 72 +2 +4 1002.8 995.1

 

Местоположение метеостанции Джалинда (Якутия, Россия): широта 70.13 долгота 113.90 высота над уровнем моря 62 м.

В архиве по умолчанию представлена погода в Джалинде за последнюю неделю. Архивные данные за месяц целиком и за предыдущие месяцы, начиная с января 2011 года, Вы можете получить, выбрав интересующий диапазон дат из раскрывающегося списка и нажав кнопку "Ввод!".

Внимание! Время в таблицах - всемирное. Для получения местного времени необходимо прибавить поправку, которая в Джалинде равна 9 ч.

Смотрите также архив погоды в соседних городах и на ближайших метеорологических станциях:

Погода в Оленеке (Якутия, Россия) (191 км)
Погода в Саскылахе (Якутия, Россия) (205 км)
Погода в Сухане (Якутия, Россия) (241 км)
Погода в Анабаре (Якутия, Россия) (344 км)
Погода в Усть-Оленеке (Якутия, Россия) (380 км)
Погода в Полярном (Якутия, Россия) (383 км)
Погода в Ярольине (Якутия, Россия) (399 км)
Погода в Тюмяти (Якутия, Россия) (400 км)
Погода в Джарджане (Якутия, Россия) (424 км)
Погода в Шелагонцах (Якутия, Россия) (432 км)

Пояснения к столбцам:

Ветер - указаны скорость ветра в м/с - средняя за 10 мин, порывы в срок и между сроками (в фигурных скобках) и направление, откуда дует ветер: С - северный, СВ - северо-восточный, В - восточный, ЮВ - юго-восточный, Ю - южный, ЮЗ - юго-западный, З - западный, СЗ - северо-западный.
Видимость - горизонтальная дальность видимости в метрах или километрах. При видимости от 1 до 10 км при отсутствии осадков обычно наблюдается дымка, при ухудшении видимости до 1 км и менее - туман. В сухую погоду видимость может ухудшаться дымом, пылью или мглою.
Явления - указаны атмосферные явления, наблюдавшиеся в срок или в последний час перед сроком; фигурными скобками обозначены явления, наблюдавшиеся между сроками (за 1-3 часа до срока); квадратными скобками обозначены град или гололедные отложения с указанием их диаметра в мм.
Облачность - указаны через наклонную черту общая и нижняя облачность в баллах и высота нижней границы облаков в метрах; квадратными скобками обозначены формы облаков: Ci - перистые, Cs - перисто-слоистые, Cc - перисто-кучевые, Ac - высококучевые, As - высокослоистые, Sc - слоисто-кучевые, Ns - слоисто-дождевые, Cu - кучевые, Cb - кучево-дождевые. Подробнее классификацию облаков см. в Атласе облаков (PDF).
T - Температура воздуха - температура, измеренная на высоте 2 м над землей.
Td - Температура точки росы - температура, при понижении до которой содержащийся в воздухе водяной пар достигнет насыщения.
f - Относительная влажность воздуха - влажноcть воздуха, измеренная на высоте 2 м над землей.
Te - Эффективная температура - температура, которую ощущает одетый по сезону человек в тени. Характеристика душности погоды. При расчете учитывается влияние влажности воздуха и скорости ветра на теплоощущения человека.
Tes - Эффективная температура на солнце - температура, которую ощущает человек, с поправкой на солнечный нагрев. Характеристика знойности погоды. Зависит от высоты солнца над горизонтом, облачности и скорости ветра. Ночью, в пасмурную погоду, а также при ветре 12 м/с и более поправка равна нулю.
P - Атмосферное давление - приведенное к уровню моря атмосферное давление.
Po - Атмосферное давление - измеренное на уровне метеостанции атмосферное давление.
Tmin - Минимальная температура - минимум температуры воздуха на высоте 2 м над землей.
Tmax - Максимальная температура - максимум температуры воздуха на высоте 2 м над землей.
R - Количество осадков - Количество выпавших осадков за период времени, мм. При наведении курсора мыши на число - период времени, за который выпало указанное количество осадков.
R24 - Количество осадков - Количество выпавших осадков за 24 часа, мм.
S - Снежный покров - Высота снежного покрова, см. При наведении курсора мыши на число - состояние снежного покрова и степень покрытия местности в баллах.